Location: ???
(35.5616°N, 139.7977°E)
Time: 19:53:03
(UTC+00:00)

Cosmos 1812 - Pass Details

Date: 17 November 2025
Orbit: 341 x 351 km, 82.5° (Epoch: 08 December)

Event Time Altitude Azimuth Distance (km) Brightness Sun altitude
Exits shadow 19:31:47 39° 112° (ESE) 530 3.2 -21.8°
Drops below altitude 10° 19:34:00 10° 156° (SSE) 1,287 5.1 -21.3°
Sets 19:35:58 0° 163° (SSE) 2,119 6.2 -20.9°
